Regional Weather Roundup
Issued by NWS

Home | Current Version | Previous Version | Text Only | Print | Product List | Glossary Off
Versions: 1 2 3 4 5 6 7 8 9 10 11 12 13 14 15 16 17 18 19 20 21 22 23 24 25 26 27 28 29 30 31 32 33 34 35 36 37 38 39 40 41 42 43 44 45 46 47 48 49 50

530
ASUS45 KABQ 230001
RWRNM
NEW MEXICO REGIONAL WEATHER ROUNDUP
NATIONAL WEATHER SERVICE ALBUQUERQUE NM
500 PM MST WED NOV 22 2017

NOTE: "FAIR" MEANS FEW OR NO CLOUDS BELOW 12,000 FEET AGL WITH NO
       SIGNIFICANT WEATHER OR OBSTRUCTIONS TO VISION.

      THIS PRODUCT IS RELEASED AS TWO VERSIONS.  ONE VERSION NEAR
      THE TOP OF THE HOUR CONTAINING PRELIMINARY DATA FROM ALBUQUERQUE
      AND OTHER STATIONS.  A FINAL VERSION WITH ADDITIONAL DATA IS
      ISSUED ABOUT 10 MINUTES AFTER THE HOUR.

NMZ501-503-504-510>518-230100-
NORTHWEST PLATEAU/NORTHCENTRAL MOUNTAINS

CITY           SKY/WX    TMP DP  RH WIND       PRES   REMARKS
FARMINGTON     FAIR      60  31  33 W8        30.31S
6HR MIN TEMP:  47; 6HR MAX TEMP:  63;

LOS ALAMOS     FAIR      55  22  27 CALM      30.38S
SANTA FE       FAIR      54  27  35 W6        30.32S
6HR MIN TEMP:  50; 6HR MAX TEMP:  64;

TAOS           FAIR      53  27  36 NW10      30.38F
ANGEL FIRE     FAIR      48  26  42 CALM      30.42S

$$
NMZ402-403-502-505>509-230100-
WESTCENTRAL MOUNTAINS/SOUTHWEST MOUNTAINS

CITY           SKY/WX    TMP DP  RH WIND       PRES   REMARKS
GALLUP         FAIR      62  30  29 N7        30.37S
6HR MIN TEMP:  52; 6HR MAX TEMP:  68;

GRANTS         FAIR      60  28  30 N8        30.38R
SILVER CITY    FAIR      59  20  22 S6        30.31S

$$
NMZ407-409-411-412-230100-
SOUTHERN DESERTS

CITY           SKY/WX    TMP DP  RH WIND       PRES   REMARKS
DEMING         FAIR      64  20  18 S3        30.27F
6HR MIN TEMP:  60; 6HR MAX TEMP:  68;

LAS CRUCES     FAIR      62  22  21 S3        30.29S
ALAMOGORDO     FAIR      61  25  25 NW5       30.28S
T OR C         FAIR      63  24  22 S6        30.28R
6HR MIN TEMP:  57; 6HR MAX TEMP:  66;


$$
NMZ519>523-230100-
CENTRAL VALLEYS/CENTRAL HIGHLANDS

CITY           SKY/WX    TMP DP  RH WIND       PRES   REMARKS
ALBUQUERQUE    FAIR      60  27  28 S3        30.31S
6HR MIN TEMP:  51; 6HR MAX TEMP:  62;

DOUBLE EAGLE   PTCLDY    54  27  35 S5        30.32F
MORIARTY ARPT  FAIR      56  25  29 CALM      30.34S
6HR MIN TEMP:  56; 6HR MAX TEMP:  66;

CLINES CORNERS FAIR      50  24  36 N8        30.36R
6HR MIN TEMP:  50; 6HR MAX TEMP:  60;

BELEN          FAIR      58  26  29 CALM      30.31S
6HR MIN TEMP:  53; 6HR MAX TEMP:  62;

SOCORRO        FAIR      59  24  26 CALM      30.30S
6HR MIN TEMP:  52; 6HR MAX TEMP:  63;


$$
NMZ524>526-539-540-230100-
SOUTHCENTRAL MOUNTAINS

CITY           SKY/WX    TMP DP  RH WIND       PRES   REMARKS
RUIDOSO        FAIR      50  21  32 NW9       30.36S

$$
NMZ527>531-230100-
NORTHEAST HIGHLANDS/NORTHEAST PLAINS

CITY           SKY/WX    TMP DP  RH WIND       PRES   REMARKS
LAS VEGAS      FAIR      49  23  36 S13       30.34R
6HR MIN TEMP:  49; 6HR MAX TEMP:  64;

RATON          FAIR      54  18  24 SW6       30.29F
6HR MIN TEMP:  51; 6HR MAX TEMP:  62;

CLAYTON        FAIR      53  27  36 S3        30.24S
6HR MIN TEMP:  53; 6HR MAX TEMP:  67;


$$
NMZ532>537-230100-
EASTCENTRAL PLAINS

CITY           SKY/WX    TMP DP  RH WIND       PRES   REMARKS
SANTA ROSA     FAIR      55  27  34 SE7       30.26S
TUCUMCARI      FAIR      57  29  34 S5        30.21F
6HR MIN TEMP:  54; 6HR MAX TEMP:  65;

CANNON AFB     FAIR      52  28  39 W6        30.27S
6HR MIN TEMP:  52; 6HR MAX TEMP:  61;

CLOVIS AIRPORT FAIR      48  30  49 NW7       30.26F

$$
NMZ028-029-538-230100-
SOUTHEAST PLAINS

CITY           SKY/WX    TMP DP  RH WIND       PRES   REMARKS
ROSWELL        FAIR      56  28  34 SE7       30.23F
6HR MIN TEMP:  54; 6HR MAX TEMP:  63;

ARTESIA        FAIR      57  28  33 SE10      30.24F
CARLSBAD       FAIR      55  31  39 SE8       30.24R
6HR MIN TEMP:  55; 6HR MAX TEMP:  63;

HOBBS          CLEAR     52  27  37 SW7       30.26F


$$




USA.gov is the U.S. government's official web portal to all federal, state and local government web resources and services.